Terminal Aerodrome Forecast
Issued by NWS North Platte, NE

Home | Current Version | Previous Version | Graphics & Text | Print | Product List | Glossary On
Versions: 1 2 3 4 5 6 7 8 9 10 11 12 13 14 15 16 17 18 19 20 21 22 23 24 25 26
000
FTUS43 KLBF 160900 AAA
TAFVTN
TAF AMD
KVTN 160906Z 1609/1706 33012KT P6SM OVC015
     FM161200 30007KT P6SM OVC020
     FM161600 33007KT P6SM BKN035
     FM162100 VRB06KT P6SM SCT150=

USA.gov is the U.S. government's official web portal to all federal, state and local government web resources and services.